User: anonymous   Login
Location: Newark
(41.0400°S, 62.7845°W)
Time: 02:30:20
(UTC+00:00)
Language:

ISS - Orbit

View from above orbital plane
View from above orbital plane
View from above satellite
View from above satellite

Ground track
Ground track

The orbit data is extracted from the following two-line orbital elements,

1 25544U 98067A   21337.87007414 -.00027219  00000-0 -48923-3 0  9999
2 25544  51.6413 223.7150 0004320 274.9487 184.6641 15.48897412314896
Epoch (UTC): 03 December 2021 20:52:54
Eccentricity: 0.0004320
inclination: 51.6413°
perigee height: 417 km
apogee height: 423 km
right ascension of ascending node: 223.7150°
argument of perigee: 274.9487°
revolutions per day: 15.48897412
mean anomaly at epoch: 184.6641°
orbit number at epoch: 31489

The dashed part of the orbit path shows where the satellite is in the earth's shadow,  

DLR